Voltar ao catálogo

STARLINK-37787

AtivoComunicaçõesSSO
NORAD 69692·PAYLOAD·🇺🇸 United States

Lançado Jun 25, 2026 de Vandenberg Space Force Base

Loading…

Próximas Passagens (próximas 24 horas)

TLE

AtualizadoSource: CelesTrak SupGP

Época: Sep 15, 2026, 03:24 UTC

1 69692C 26145R   26258.14215278 -.00033737  00000+0 -10469-2 0  2587
2 69692  97.2849 104.9264 0001813  91.4391 314.1219 15.33465827    15

Acompanhe STARLINK-37787 em tempo real com AllMySat

Download on the App Store